Mackall AAF, NC

11:43 AM EST on November 18, 2017 (GMT -0500)
Mackall Army Air Field

Weather History for KHFF - April, 2014

Change the Weather History Date:

Wednesday, April 9, 2014

  Actual Average Record
Temperature  
Mean Temperature 56 °F -  
Max Temperature 69 °F 70 °F 91 °F (2001)
Min Temperature 45 °F 49 °F 34 °F (2017)
Degree Days  
Heating Degree Days 8    
Growing Degree Days 6 (Base 50)    
Moisture  
Dew Point 41 °F    
Average Humidity 58    
Maximum Humidity 95    
Minimum Humidity 28    
Precipitation  
Precipitation 0.07 in - - ()
Sea Level Pressure  
Sea Level Pressure 29.91 in    
Wind  
Wind Speed 7 mph (NW)    
Max Wind Speed 13 mph    
Max Gust Speed 23 mph    
Visibility 11 miles    
Events Rain    
Averages and records for this station are not official NWS values.
T = Trace of Precipitation, MM = Missing Value Source: NWS Daily Summary

Daily Weather History Graph

Daily Weather History Graph

Search for Another Location

Airport or City:

Trip Planner

Search our weather history database for the weather conditions in past years. The results will help you decide how hot, cold, wet, or windy it might be!

Date:

Astronomy

Apr. 09, 2014 Rise Set
Actual Time 6:53 AM EDT 7:45 PM EDT
Civil Twilight 6:28 AM EDT 8:11 PM EDT
Nautical Twilight 5:57 AM EDT 8:42 PM EDT
Astronomical Twilight 5:26 AM EDT 9:13 PM EDT
Moon 2:43 PM EDT (4/9) 3:30 AM EDT (4/9)
Length of Visible Light 13h 43m
Length of Day
12h 51m
Waxing Gibbous, 71% of the Moon is Illuminated
Apr 9
Waxing Gibbous
Apr 15
Full
Apr 22
Last Quarter
Apr 29
New
May 6
First Quarter

Hourly Weather History & Observations

Time (EDT) Temp. Windchill Dew Point Humidity Pressure Visibility Wind Dir Wind Speed Gust Speed Precip Events Conditions
12:55 AM 53.1 °F - 41.0 °F 64% 29.72 in 10.0 mi NNW 8.1 mph - N/A   Scattered Clouds
1:55 AM 52.7 °F - 41.4 °F 65% 29.71 in 10.0 mi NNW 3.5 mph - N/A   Mostly Cloudy
2:55 AM 53.4 °F - 40.5 °F 61% 29.70 in 10.0 mi North 6.9 mph - N/A   Mostly Cloudy
3:55 AM 50.7 °F - 44.2 °F 78% 29.74 in 10.0 mi WNW 10.4 mph - 0.02 in Rain Light Rain Showers
4:55 AM 50.2 °F - 45.1 °F 83% 29.73 in 10.0 mi ENE 6.9 mph - 0.04 in Rain Light Rain
5:55 AM 48.2 °F - 46.4 °F 93% 29.77 in 10.0 mi NW 4.6 mph - N/A   Partly Cloudy
6:58 AM 45.9 °F 43.6 °F 44.6 °F 95% 29.81 in 10.0 mi NW 4.6 mph - 0.01 in   Clear
7:55 AM 47.8 °F - 45.5 °F 92% 29.84 in 10.0 mi NW 3.5 mph - N/A   Mostly Cloudy
8:56 AM 52.5 °F - 45.5 °F 77% 29.87 in 12.0 mi NNW 4.6 mph - N/A   Clear
9:56 AM 59.0 °F - 42.8 °F 55% 29.91 in 12.0 mi West 3.5 mph - N/A   Clear
10:56 AM 60.1 °F - 42.4 °F 52% 29.92 in 12.0 mi Variable 5.8 mph - N/A   Clear
11:56 AM 62.8 °F - 40.3 °F 44% 29.93 in 12.0 mi Variable 5.8 mph - N/A   Partly Cloudy
12:56 PM 65.7 °F - 33.6 °F 30% 29.92 in 12.0 mi NNW 8.1 mph 16.1 mph N/A   Scattered Clouds
1:36 PM 68.0 °F - 35.6 °F 30% 29.92 in 12.0 mi WNW 11.5 mph 19.6 mph N/A   Scattered Clouds
1:56 PM 66.0 °F - 35.2 °F 32% 29.92 in 12.0 mi NW 10.4 mph 18.4 mph N/A   Mostly Cloudy
2:56 PM 68.0 °F - 35.4 °F 30% 29.92 in 12.0 mi WNW 10.4 mph 19.6 mph N/A   Mostly Cloudy
3:56 PM 68.2 °F - 34.7 °F 29% 29.93 in 12.0 mi West 12.7 mph 23.0 mph N/A   Scattered Clouds
4:56 PM 68.4 °F - 34.3 °F 28% 29.94 in 12.0 mi WNW 12.7 mph 21.9 mph N/A   Partly Cloudy
4:57 PM 68.0 °F - 35.6 °F 30% 29.94 in 12.0 mi NW 11.5 mph 21.9 mph N/A   Partly Cloudy
5:56 PM 67.6 °F - 36.7 °F 32% 29.98 in 12.0 mi WNW 11.5 mph 18.4 mph N/A   Clear
6:56 PM 66.0 °F - 38.7 °F 37% 30.01 in 12.0 mi WNW 5.8 mph - N/A   Partly Cloudy
7:56 PM 62.8 °F - 39.0 °F 42% 30.03 in 6.0 mi WNW 3.5 mph - N/A   Clear
8:56 PM 55.9 °F - 44.6 °F 66% 30.07 in 12.0 mi Variable 1.2 mph - N/A   Clear
9:56 PM 51.6 °F - 45.7 °F 80% 30.10 in 12.0 mi South 1.2 mph - N/A   Clear
10:56 PM 48.9 °F - 43.9 °F 83% 30.11 in 12.0 mi South 1.2 mph - N/A   Clear
11:56 PM 46.0 °F - 43.9 °F 92% 30.14 in 12.0 mi North 1.2 mph - N/A   Clear